SUCHAI (42788 NORAD) Tracking and Keplerian Element Data

This shows tracking and keplerian element data for the satellite.

Feedback or suggestion? Click here.




ElementValue
Catalog42788
NameSUCHAI
Epoch Orbit10079
Epoch Day106.88133177
Epoch Year2019
RAAN166.3144
Inclination97.3586
Eccentricity0.0013456
Argument of Perigee91.1399
Mean Anonmoly269.138
Mean Motion15.22729175
Decay Rate1.42E-05
L11 42788U 17036Z 19106.88133177 .00001420 00000-0 63746-4 0 9998
L22 42788 97.3586 166.3144 0013456 91.1399 269.1380 15.22729175100792

Live tracking and technical data element details for SUCHAI (NORAD 42788). SUCHAI can be tracked NOW for your location showing map with azimuth and elevation plus other details from your city location.

Track the satellite on the map from your city or location and see movement details for azimuth, elevation, latitude, longitude, range, height, and movement on the map or in text.







IsCatalogInMostPopularTable: catalog: 42788, numindb: 184
Update: records affected: 1



GetName: 42788 SUCHAI

Hit Count: updated at: Sat, 20 Apr 2019 00:50:01 GMT